GOSAT (IBUKI)

Last updated on Mon Sep 21 2026 00:02:45 GMT+0000 (Coordinated Universal Time)

1 33492U 09002A 26263.25255960 .00000294 00000+0 60271-4 0 9999 2 33492 98.0963 13.1763 0001560 93.7563 266.3820 14.67534295945409
UTC large
Height (km)
Speed (km/s)
/
Latitude / Longitude
Inclination (degrees)
Orbital Period (minutes)
Azimuth
Elevation
Range (km)
Doppler Factor

Next 0 passes for location: London (51.5072 / 0.1276)

No passes found over London.
GOSAT (IBUKI)